Location: Recife
(8.0585°S, 34.8848°W)
Time: 11:01:09
(UTC-03:00)

Vanguard 2 Rocket - Pass Details

Date: 16 April 2026
Orbit: 553 x 3286 km, 32.9° (Epoch: 8 May)

Event Time Altitude Azimuth Distance (km) Brightness Sun altitude
Rises 08:21:54 0° 242° (WSW) 4,892 10.2 42.2°
Reaches altitude 10° 08:25:41 10° 228° (SW) 4,313 10.0 43.1°
Maximum altitude 08:35:29 25° 177° (S) 4,109 10.3 45.3°
Drops below altitude 10° 08:49:01 10° 129° (SE) 6,026 11.4 48.4°
Sets 08:55:48 0° 116° (ESE) 7,232 11.8 49.9°
